STARLINK-2237, 48583

Orbit data source: Space-Track

STARLINK-2237, 48583 is a payload satellite owned by SpaceX/Seattle (US) in LEO that was launched on Sat, 15 May 2021 UTC via an FALCON 9 launch vehicle from the Air Force Eastern Test Range (AFETR). Payload-class satellites include a variety of spacecraft equipped with specific instruments for various scientific and technological missions. These include communications satellites like Starlink; space stations such as the ISS; scientific satellites like the Hubble; Earth observation satellites from companies like Planet Labs, Umbra, and HawkEye 360; GPS; miniature CubeSats for education and research; and military/defense satellites.

Loading next visibility...
Identifier
48583, 2021-041AG
Orbit
LEO
Country
Flag of USUS
Related business
Manufacturer
SpaceX/Seattle
Mission
Operational Commercial Communications
Bus & Motor
STARLINK, Unknown motor
Mass
260 kg wet, ~248 kg dry
Launch date (UTC)
2021-05-15 (5 years ago)
Launch vehicle
FALCON 9
Launch site
Air Force Eastern Test Range (AFETR)
Object type
Payload
Rocket body
Debris
Shape & HBR
Box + 1 Pan, 10.1 m
Radar Cross Section
13.562 m², Large (>1 m²)

Expand to show TLE details & history
Last TLE update: 2 days ago

TLE from 2 days ago
0 STARLINK-2237
1 48583U 21041AG  26171.31771911  .00007185  00000-0  24299-3 0  9993
2 48583  53.1591  31.5424 0001361  85.9520 274.1637 15.31710366280679
Epoch: 2026-06-20T07:37Z
TLE epoch observation values (Epoch: 2026-06-20T07:37:30.931Z)
Latitude
Longitude
8.62945°
Altitude
471.542 km
Speed
7.632 km/s
True Right ascension
02h 06m 10s
True Declination
0° 00' 00"
Sunlit
Object was in daylight at epoch
Visualization orbit readout
Latitude
Unknown
Longitude
Unknown
Altitude
Unknown
Speed
Unknown
Apparent Right ascension
Unknown
Apparent Declination
Unknown
Sunlit
N/A
Visualization observer readout
Local Sidereal Time
21:36:54
Azimuth
Unknown
Elevation
Unknown
Doppler factor
Unknown
Orbital elements
Apogee altitude
471.898 km
Perigee altitude
470.034 km
Semi-major axis
6,849.103 km
Eccentricity
0.00014
Inclination
53.1591°
RAAN
31.5424°
Arg. of periapsis
85.952°
True anomaly
274.14815°
Mean anomaly
274.1637°
Eccentric anomaly
274.15592°
Mean motion
3.82906 °/min
Orbital period
94.02 mins
BSTAR
0.00024299
Loading maneuver chart data...
Computing Atmospheric mass density...

Documentation

Showing up to 5 results
|